Regional Weather Roundup
Issued by NWS

Home | Current Version | Previous Version | Text Only | Print | Product List | Glossary Off
Versions: 1 2 3 4 5 6 7 8 9 10 11 12 13 14 15 16 17 18 19 20 21 22 23 24 25 26 27 28 29 30 31 32 33 34 35 36 37 38 39 40 41 42 43 44 45 46 47 48 49 50

000
ASUS45 KBOU 250107
RWRCO

WEATHER ROUNDUP FOR COLORADO
NATIONAL WEATHER SERVICE DENVER/BOULDER CO
700 PM MDT SUN JUL 24 2016

NOTE: "FAIR" INDICATES FEW OR NO CLOUDS BELOW 12000 FEET WITH NO
SIGNIFICANT WEATHER AND/OR OBSTRUCTIONS TO VISIBILITY.

COZ001>005-013-030-031-250200-
...NORTHWEST COLORADO...

CITY           SKY/WX    TMP DP  RH WIND       PRES   REMARKS
CRAIG          FAIR      90  30  11 E8        30.15S
HAYDEN         FAIR      81  41  24 E12       30.20S
MEEKER         FAIR      88  30  12 MISG      30.17S
MOUNT WERNER   NOT AVBL
STEAMBOAT SPGS FAIR      81  37  20 CALM      30.23F
WALDEN         FAIR      73  34  23 S6        30.36F
$$

COZ006>008-011-250200-
...WEST CENTRAL VALLEYS...

CITY           SKY/WX    TMP DP  RH WIND       PRES   REMARKS
GRAND JUNCTION FAIR      97  28   8 VRB5      30.00F
MONTROSE       FAIR      91  32  12 E3        30.13F
EAGLE          SUNNY     82  37  20 E12       30.24S
RIFLE          FAIR      94  31  10 NE6       30.08S
DELTA          FAIR      94  35  12 E7        30.07F
NUCLA          FAIR     N/A N/A N/A SE8       30.16F
$$

COZ017>023-064>068-250200-
...SOUTHWEST COLORADO...

CITY           SKY/WX    TMP DP  RH WIND       PRES   REMARKS
DURANGO        FAIR      79  43  27 N13       30.23R
CORTEZ         FAIR      92  41  17 NE14      30.13S
PAGOSA SPRINGS FAIR      79  29  16 CALM      30.30F
TELLURIDE      FAIR      69  40  34 CALM      30.47F
WOLF CREEK PAS CLOUDY    55  32  41 NE6       30.71S
$$

COZ009-010-012-014-032>034-037-058>063-250200-
...CENTRAL COLORADO...

CITY           SKY/WX    TMP DP  RH WIND       PRES   REMARKS
ASPEN          FAIR      74  40  29 NW8       30.33R
BUENA VISTA    FAIR      77  37  23 S10       30.32R
COPPER MTN     FAIR      61  32  33 NW18      30.71R
BERTHOUD PASS  FAIR      46  34  61 NW16      30.73R
COTTONWOOD PAS FAIR      72  36  26 SE15G22   30.49R
GUNNISON       FAIR      81  34  18 NW9       30.32S
KREMMLING      FAIR      73  39  29 SW3       30.34F
LEADVILLE      FAIR      68  31  25 N17       30.49R
MONARCH PASS   CLOUDY    63  30  29 MISG      30.78R
SALIDA         FAIR      79  43  27 E10G16    30.35R
SUNLIGHT       FAIR      64  37  36 NE3       30.61S
WILKERSON PASS CLOUDY    59  34  38 E8        30.66R
$$

COZ069>075-250200-
...SAN LUIS VALLEY/SANGRE DE CRISTO MOUNTAINS...

CITY           SKY/WX    TMP DP  RH WIND       PRES   REMARKS
ALAMOSA        FAIR      82  36  19 W8        30.28S
LA VETA PASS   FAIR      54  46  76 N7        30.54S
SAGUACHE       FAIR      81  34  18 NW12      30.30R
$$

COZ035-036-038>040-250200-
...NORTHERN COLORADO FRONT RANGE...

CITY           SKY/WX    TMP DP  RH WIND       PRES   REMARKS
DENVER INTL AP PTSUNNY   76  52  43 E18G29    30.17R
DMNS CITY PARK   N/A     76  51  40 E10       30.19R
AURORA         PTSUNNY   75  54  47 E17G29    30.21R
FRONT RANGE AP PTSUNNY   79  54  41 E20G36    30.21R
ERIE MUNI ARPT FAIR      76  49  38 E12G17    30.17R
BOULDER MUN AP FAIR      77  55  47 NW5       30.18R
CENTENNIAL     PTSUNNY   80  48  32 E8        30.20R
BROOMFIELD     PTSUNNY   75  46  35 E12       30.21R
LONGMONT       FAIR      76  53  45 N3        30.19R
$$

COZ041-046-047-076>085-087-088-250200-
...PIKES PEAK/PALMER DIVIDE AND SOUTHERN FOOTHILLS...

CITY           SKY/WX    TMP DP  RH WIND       PRES   REMARKS
COLO. SPRINGS  FAIR      78  51  38 SE10      30.24R
A. F. ACADEMY  PTSUNNY   79  44  28 S15       30.24R
SCHRIEVER AFB  NOT AVBL
ELLICOTT       FAIR     N/A N/A N/A E12       30.23R
FALCON         FAIR      76  44  31 S9        30.30R
FORT CARSON    NOT AVBL
LIMON          FAIR      75  54  47 E12       30.22R
MONUMENT HILL  FAIR      73  41  31 SE6       30.30S
TRINIDAD       NOT AVBL
$$

COZ042>045-048>051-090-091-250200-
...NORTHEAST COLORADO...

CITY           SKY/WX    TMP DP  RH WIND       PRES   REMARKS
GREELEY ARPT   FAIR      73  59  60 E21G26    30.16R
AKRON          TSTM      60  58  92 N23G38    30.31R FOG
BURLINGTON     FAIR      84  60  44 E9        30.13R
WRAY           NOT AVBL
STERLING       PTSUNNY   64  59  82 SE16G23   30.15F
HOLYOKE        CLOUDY    79  61  53 W22       30.20R
FORT MORGAN    FAIR      62  59  90 E8        30.20R
$$

COZ086-089-092>099-250200-
...SOUTHEAST COLORADO...

CITY           SKY/WX    TMP DP  RH WIND       PRES   REMARKS
PUEBLO         FAIR      81  55  40 SE10G21   30.13R
LA JUNTA       TSTM      68  62  81 W20G30    30.17R VSB 1/2
LAMAR          FAIR      87  61  41 S9        30.03R
SPRINGFIELD      N/A     79  59  50 CALM      30.09R
$$



USA.gov is the U.S. government's official web portal to all federal, state and local government web resources and services.